Temp
75 77 77 75 76 78 77 75 75 75 73 72 73 74 71 73 71 71 72 79 80 79 80 80 80 80 81 81 81 81 81 81 81 81 81 81 79 80 79 80 80 80 80
75 76 76 75 74 74 78 78 76 74 74 74 74 75 74 75 75 74 74 73 80 80 80 79 80 80 80 81 80 81 80 81 81 80 80 79 78 79 79 79 80 80 79
77 75 74 72 73 71 77 76 78 76 77 77 77 77 75 76 76 76 75 73 75 80 79 80 80 79 80 81 81 80 80 79 80 79 80 79 78 78 78 78 79 79 79
78 74 74 74 75 75 75 75 74 77 76 75 74 75 76 78 77 77 74 73 74 75 78 79 78 79 79 80 79 79 78 77 77 78 79 79 78 78 79 78 78 78 78
80 77 76 74 76 74 75 74 73 75 75 76 75 73 74 75 75 77 74 75 74 74 73 75 78 78 78 78 78 78 76 76 77 77 77 78 78 78 78 78 78 77 78
80 76 76 74 75 76 75 75 74 77 76 77 77 77 72 74 73 73 72 72 70 72 72 72 71 73 77 77 77 76 76 77 76 77 78 78 78 78 78 78 78 77 77
80 77 76 77 79 76 76 75 75 75 75 73 71 71 71 72 70 68 67 68 70 70 71 70 69 70 71 76 76 76 77 77 76 77 77 77 77 77 77 78 77 77 77
81 79 78 78 79 77 75 74 74 72 73 73 70 68 65 67 70 67 66 66 67 66 67 68 71 71 70 69 72 77 77 77 77 76 74 75 75 75 76 76 77 77 76
82 80 79 79 78 77 76 75 74 74 71 72 73 70 65 63 65 67 66 65 66 64 65 67 69 69 68 67 71 72 78 76 76 74 72 72 72 73 75 76 76 76 76
81 82 81 80 80 79 76 75 77 74 72 71 71 71 69 68 66 64 65 64 65 64 63 65 66 67 68 67 71 73 74 74 73 73 72 72 71 70 72 75 76 76 76
81 85 81 81 79 79 78 76 76 75 73 72 71 71 69 68 68 66 64 63 63 63 64 65 66 66 66 67 66 69 74 75 74 73 72 70 69 69 71 73 76 76 76
79 80 83 81 80 79 79 78 77 76 74 74 73 72 70 68 67 66 64 63 60 64 65 65 64 66 66 66 71 74 74 74 73 71 70 70 72 72 71 74 75 77 77
78 80 79 80 80 80 79 78 76 75 75 73 73 72 71 69 69 67 65 62 60 64 65 65 65 65 66 64 67 73 74 73 69 69 69 71 72 74 75 74 75 76 77
78 80 81 81 81 80 79 77 76 75 75 74 74 72 71 71 70 67 65 62 61 63 63 63 65 64 65 64 69 72 69 71 70 70 70 70 71 71 72 72 72 71 76
80 80 80 79 79 80 78 77 76 75 75 74 74 73 72 72 71 69 66 64 62 61 61 62 63 64 62 62 66 63 65 71 71 69 68 69 68 69 69 70 70 70 70
77 79 79 79 79 78 78 77 74 76 75 74 74 73 72 72 70 70 68 66 64 63 60 62 63 63 62 64 66 62 65 68 68 67 66 65 67 68 69 69 70 70 70
77 77 77 77 77 78 78 77 76 75 74 73 74 72 72 71 70 69 69 66 63 64 61 63 63 62 59 60 60 60 62 61 64 67 67 66 66 67 68 68 69 69 69
77 77 77 77 77 78 78 77 75 74 73 73 72 71 70 72 70 69 67 66 64 64 62 61 62 59 58 58 59 58 62 63 61 68 67 67 66 65 65 65 65 63 64
76 76 77 77 77 78 77 77 74 74 74 73 71 69 68 68 70 68 65 65 65 64 64 61 59 58 58 58 58 58 57 57 62 68 66 66 65 64 63 62 62 61 61
75 75 76 77 78 78 76 74 74 74 73 72 70 69 68 71 70 68 66 65 64 61 60 59 57 57 57 58 57 56 55 55 56 62 64 63 64 65 64 63 62 62 61
77 76 77 77 77 76 74 72 73 74 71 70 69 69 68 71 70 69 67 64 62 60 60 58 57 56 56 56 56 56 55 54 54 55 55 57 58 58 60 64 65 63 63
76 76 76 77 73 73 64 66 71 72 71 69 67 67 66 69 69 67 68 67 64 60 58 58 57 57 56 57 57 57 56 54 53 56 54 55 57 57 58 59 64 63 62
75 77 76 76 71 68 63 64 67 71 70 68 68 66 67 67 66 65 65 66 66 66 65 61 59 58 58 59 58 57 56 56 55 56 56 54 56 56 57 59 62 61 61
76 77 76 75 69 66 62 62 65 70 69 68 69 67 65 63 63 63 62 61 61 62 62 66 63 61 62 61 62 60 59 58 57 57 58 55 56 56 57 58 62 61 60
77 77 77 71 68 64 60 60 65 69 68 67 67 68 68 64 62 62 62 60 60 61 63 61 63 63 63 63 62 61 58 57 55 56 58 57 56 56 57 57 57 61 59
79 76 75 71 66 64 58 57 64 70 66 64 62 64 66 67 61 62 62 60 58 60 61 62 61 61 62 62 64 63 59 56 56 56 59 58 57 57 55 56 56 57 56
MSLP
1015.66 1015.31 1015.21 1015.45 1015.02 1014.90 1014.82 1014.93 1015.21 1015.62 1015.50 1015.44 1015.17 1015.01 1015.16 1015.25 1015.34 1015.04 1014.56 1014.23 1014.31 1014.70 1015.07 1015.03 1014.57 1014.55 1014.66 1014.70 1014.98 1015.20 1015.40 1015.78 1016.27 1016.66 1017.02 1017.27 1017.60 1017.99 1018.35 1018.31 1018.76 1019.08 1019.10
1015.24 1014.93 1014.99 1015.06 1014.94 1014.82 1014.67 1014.53 1014.60 1015.33 1015.03 1014.84 1015.05 1014.68 1014.51 1014.44 1014.55 1014.65 1014.49 1014.26 1014.14 1014.42 1014.64 1014.49 1014.30 1014.40 1014.48 1014.45 1014.64 1014.84 1015.14 1015.16 1015.69 1016.17 1016.70 1017.01 1017.38 1017.72 1018.14 1018.38 1018.39 1018.82 1019.14
1014.78 1014.67 1014.94 1015.01 1014.85 1015.22 1014.76 1014.51 1014.12 1014.25 1014.55 1014.57 1014.62 1014.28 1014.00 1013.71 1013.71 1013.79 1014.12 1014.11 1014.11 1014.27 1014.21 1013.89 1013.79 1013.94 1014.03 1013.94 1014.27 1014.52 1014.84 1015.07 1015.51 1016.12 1016.45 1016.69 1016.97 1017.36 1017.91 1018.39 1018.38 1018.60 1019.08
1014.45 1014.47 1014.61 1014.61 1014.27 1014.43 1014.55 1014.54 1014.37 1014.40 1014.38 1014.24 1014.28 1013.94 1013.56 1013.22 1013.21 1013.36 1013.54 1013.80 1014.00 1014.05 1013.92 1013.58 1013.55 1013.55 1013.66 1013.72 1013.97 1014.34 1014.65 1015.28 1015.51 1015.60 1015.95 1016.37 1016.63 1016.93 1017.40 1018.05 1018.41 1018.64 1019.03
1014.17 1014.18 1014.09 1014.48 1014.10 1014.25 1014.62 1014.69 1014.47 1014.42 1014.38 1014.10 1013.80 1013.84 1013.55 1013.55 1013.60 1013.43 1013.81 1013.92 1014.01 1014.01 1013.84 1013.40 1012.99 1013.07 1013.30 1013.75 1013.87 1014.10 1014.54 1014.84 1015.13 1015.44 1015.75 1015.93 1016.22 1016.43 1016.94 1017.56 1018.20 1018.57 1018.85
1014.03 1014.04 1013.97 1014.33 1014.23 1014.40 1014.41 1014.51 1014.44 1014.34 1014.21 1014.08 1013.99 1013.88 1013.72 1013.60 1013.83 1013.90 1014.07 1014.06 1014.27 1014.12 1013.89 1013.57 1013.32 1013.19 1013.12 1013.38 1013.80 1014.10 1014.46 1014.70 1014.98 1015.17 1015.34 1015.56 1015.84 1016.02 1016.29 1016.99 1017.68 1018.35 1018.76
1013.81 1013.99 1014.05 1014.01 1013.73 1014.11 1014.17 1014.35 1014.44 1014.42 1014.25 1014.23 1014.40 1014.18 1013.98 1013.82 1014.17 1014.40 1014.52 1014.68 1014.68 1014.43 1014.05 1013.74 1013.55 1013.33 1013.33 1013.45 1013.70 1013.81 1013.99 1014.23 1014.60 1014.79 1015.21 1015.55 1015.81 1015.92 1016.07 1016.67 1017.36 1018.04 1018.49
1013.25 1013.51 1013.96 1013.59 1013.65 1013.92 1014.21 1014.38 1014.43 1014.55 1014.38 1014.08 1014.23 1014.49 1014.43 1014.80 1014.64 1014.70 1014.68 1014.81 1014.91 1014.63 1014.10 1013.67 1013.41 1013.34 1013.27 1013.25 1013.30 1013.22 1013.45 1013.78 1014.02 1014.41 1015.06 1015.22 1015.44 1015.74 1016.16 1016.54 1017.09 1017.63 1018.30
1012.71 1012.95 1013.16 1013.41 1013.42 1013.71 1013.86 1013.95 1014.02 1014.11 1014.20 1013.87 1013.81 1014.11 1014.53 1014.76 1014.56 1014.34 1014.67 1014.77 1014.65 1014.36 1014.09 1013.71 1013.50 1013.45 1013.50 1013.57 1013.49 1013.38 1013.29 1013.44 1013.64 1013.76 1014.64 1015.11 1015.60 1015.97 1016.36 1016.71 1017.03 1017.47 1017.85
1012.40 1012.55 1012.71 1012.84 1013.10 1013.32 1013.46 1013.55 1013.49 1013.51 1013.76 1013.92 1013.76 1013.78 1013.99 1014.04 1014.18 1014.19 1014.21 1014.31 1014.34 1014.27 1014.13 1013.84 1013.73 1013.60 1013.48 1013.38 1013.12 1012.93 1012.91 1013.11 1013.71 1014.04 1014.30 1014.90 1015.55 1016.10 1016.39 1016.53 1016.92 1017.26 1017.62
1012.20 1012.40 1012.47 1012.77 1013.05 1013.08 1013.18 1013.27 1013.35 1013.37 1013.40 1013.43 1013.39 1013.48 1013.58 1013.51 1013.53 1013.88 1013.92 1014.37 1014.42 1014.32 1014.07 1014.02 1013.85 1013.55 1013.32 1013.08 1012.89 1012.76 1012.59 1012.86 1013.48 1013.93 1014.61 1015.17 1015.72 1016.36 1016.48 1016.58 1016.90 1016.98 1017.45
1012.38 1012.45 1012.24 1012.56 1012.63 1012.76 1012.86 1012.94 1013.07 1013.09 1013.01 1012.99 1012.96 1013.06 1013.17 1013.30 1013.21 1013.43 1013.71 1013.97 1014.28 1014.41 1014.31 1014.23 1013.97 1013.75 1013.52 1013.19 1012.75 1012.53 1012.43 1012.64 1013.28 1013.95 1014.52 1015.16 1015.79 1016.26 1016.48 1016.53 1016.85 1016.78 1017.28
1012.44 1012.12 1012.08 1012.35 1012.47 1012.54 1012.63 1012.75 1012.85 1012.80 1012.80 1012.75 1012.77 1012.73 1012.64 1012.65 1012.66 1012.80 1013.18 1013.65 1014.06 1014.35 1014.54 1014.41 1014.19 1013.85 1013.64 1013.35 1013.01 1012.59 1012.51 1012.88 1013.67 1014.14 1014.77 1015.12 1015.90 1016.04 1016.52 1016.44 1016.65 1016.92 1017.08
1012.34 1012.25 1011.79 1012.09 1012.22 1012.39 1012.45 1012.61 1012.69 1012.55 1012.57 1012.53 1012.56 1012.50 1012.46 1012.22 1012.18 1012.31 1012.55 1013.16 1013.99 1014.21 1014.58 1014.59 1014.51 1014.40 1014.04 1013.81 1013.42 1013.08 1013.13 1013.53 1013.91 1014.52 1015.12 1015.51 1016.03 1016.47 1016.73 1016.89 1016.84 1017.24 1016.68
1012.16 1012.00 1011.88 1011.84 1012.11 1012.20 1012.42 1012.45 1012.44 1012.38 1012.44 1012.52 1012.42 1012.29 1012.20 1012.04 1011.99 1011.89 1012.13 1012.47 1013.17 1014.11 1014.47 1014.91 1014.91 1014.95 1014.63 1014.53 1014.24 1013.97 1013.89 1013.97 1014.39 1014.91 1015.42 1015.79 1016.32 1016.70 1016.84 1016.77 1016.99 1017.19 1016.87
1011.97 1012.00 1011.86 1011.89 1012.21 1012.41 1012.45 1012.37 1012.34 1012.28 1012.36 1012.45 1012.27 1012.18 1012.02 1011.95 1012.04 1011.92 1011.97 1012.41 1012.82 1013.24 1014.30 1014.78 1014.99 1015.23 1015.13 1015.16 1014.87 1014.64 1014.60 1014.66 1015.00 1015.54 1015.99 1015.55 1016.42 1016.83 1016.68 1016.84 1017.07 1017.00 1017.00
1011.45 1011.79 1011.83 1012.03 1012.29 1012.26 1012.13 1012.18 1012.31 1012.31 1012.30 1012.45 1012.26 1012.25 1012.19 1011.94 1011.93 1011.88 1012.23 1012.57 1012.96 1013.16 1014.08 1014.88 1015.24 1015.59 1015.76 1015.78 1015.74 1015.26 1015.29 1015.57 1015.80 1016.03 1016.36 1016.56 1016.85 1017.05 1017.14 1017.39 1017.28 1017.16 1017.07
1011.11 1011.27 1011.47 1011.63 1011.75 1011.72 1011.68 1011.94 1012.10 1012.34 1012.19 1012.27 1012.35 1012.42 1012.42 1012.17 1012.01 1012.24 1012.51 1012.93 1013.06 1013.39 1013.82 1014.91 1015.62 1016.00 1016.19 1016.32 1016.35 1016.31 1016.06 1016.20 1016.36 1016.43 1016.61 1016.93 1017.02 1017.26 1017.42 1017.38 1017.56 1017.42 1017.38
1010.65 1010.90 1011.01 1011.13 1011.21 1011.15 1011.26 1011.55 1011.90 1011.89 1011.86 1012.04 1012.28 1012.31 1012.39 1012.21 1012.26 1012.66 1012.93 1013.10 1013.37 1013.68 1014.18 1014.79 1015.72 1016.13 1016.40 1016.58 1016.73 1016.92 1016.92 1016.93 1016.78 1016.60 1016.83 1017.15 1017.23 1017.36 1017.57 1017.68 1017.70 1017.65 1017.57
1010.19 1010.28 1010.25 1010.38 1010.48 1010.54 1011.00 1011.29 1011.46 1011.54 1011.58 1011.83 1012.14 1012.27 1012.16 1011.98 1012.14 1012.69 1013.20 1013.39 1013.63 1014.06 1014.57 1015.13 1015.85 1016.41 1016.57 1016.71 1016.87 1017.37 1017.67 1017.54 1017.45 1016.99 1017.10 1017.42 1017.50 1017.63 1017.84 1018.03 1018.20 1018.21 1018.31
1009.31 1009.49 1009.63 1009.89 1010.21 1010.60 1010.94 1011.18 1011.31 1011.37 1011.72 1012.10 1012.18 1012.20 1012.32 1012.20 1012.31 1012.61 1013.02 1013.69 1014.01 1014.31 1014.86 1015.47 1016.11 1016.56 1016.81 1016.90 1017.27 1017.44 1017.88 1017.93 1017.72 1017.75 1017.87 1017.87 1017.82 1018.00 1018.11 1018.12 1018.27 1018.42 1018.47
1008.59 1008.87 1009.15 1009.54 1010.24 1010.57 1010.85 1011.08 1011.13 1011.42 1011.74 1012.12 1012.62 1012.53 1012.40 1012.49 1012.73 1012.85 1012.99 1013.44 1013.80 1014.32 1014.90 1015.43 1015.90 1016.32 1016.64 1016.73 1016.97 1017.30 1017.74 1018.04 1017.93 1017.56 1017.95 1018.21 1018.13 1018.28 1018.35 1018.37 1018.37 1018.61 1018.66
1008.31 1008.28 1008.68 1009.17 1009.70 1010.19 1010.73 1010.89 1010.91 1011.22 1011.55 1012.17 1012.56 1012.79 1012.89 1012.76 1012.82 1013.17 1013.37 1013.59 1013.92 1014.21 1014.35 1014.72 1015.23 1015.75 1016.16 1016.15 1016.46 1017.02 1017.33 1017.57 1017.56 1017.50 1017.62 1018.22 1018.33 1018.48 1018.22 1018.28 1018.40 1018.63 1018.68
1007.63 1007.78 1008.04 1008.24 1009.25 1009.77 1010.40 1010.54 1010.79 1011.09 1011.68 1011.59 1011.94 1012.50 1012.94 1013.35 1013.22 1013.26 1013.65 1013.97 1014.11 1014.06 1014.12 1014.30 1014.43 1014.86 1015.15 1015.53 1015.85 1016.09 1016.52 1017.19 1017.46 1017.44 1017.37 1018.13 1018.31 1018.56 1018.39 1018.47 1018.43 1018.68 1018.87
1006.88 1007.08 1007.31 1008.04 1008.73 1009.88 1010.69 1011.02 1011.40 1011.55 1011.78 1011.91 1011.99 1012.40 1012.87 1013.39 1013.70 1013.76 1013.70 1014.17 1014.32 1014.09 1013.64 1013.77 1014.03 1014.28 1014.72 1015.06 1015.49 1016.11 1016.77 1017.08 1017.71 1017.72 1017.51 1017.73 1018.22 1018.52 1018.60 1018.77 1018.86 1018.95 1019.16
1006.34 1006.42 1007.05 1007.54 1008.50 1009.41 1010.26 1010.58 1011.12 1011.09 1011.99 1012.46 1012.67 1012.44 1012.85 1013.16 1013.93 1014.27 1014.23 1014.32 1014.46 1014.26 1013.95 1013.90 1014.35 1014.50 1014.75 1015.18 1015.24 1015.45 1016.27 1017.03 1017.33 1017.56 1017.18 1017.45 1018.04 1018.27 1018.83 1018.83 1018.96 1019.10 1019.21
Wind_Speed
3 3 4 3 5 3 5 3 2 4 6 8 7 7 8 7 6 5 5 17 15 18 19 18 16 16 17 19 19 19 20 19 16 16 18 18 18 17 15 15 16 14 14
4 3 2 3 4 3 3 3 4 5 6 6 7 9 10 8 9 10 7 6 16 14 18 20 21 16 19 18 20 20 19 18 17 16 17 18 17 17 17 15 17 15 13
5 3 4 5 5 4 4 3 5 4 5 4 8 8 8 10 9 10 7 5 7 16 19 21 20 19 20 16 21 22 20 17 16 15 17 16 17 17 18 16 17 16 14
6 4 3 2 2 0 2 3 2 1 2 3 3 2 2 2 4 6 5 5 5 7 14 20 21 17 16 15 17 17 14 12 14 12 15 15 15 17 18 18 17 16 15
6 5 3 2 2 1 1 2 2 1 2 3 3 1 0 3 3 5 5 6 6 6 6 15 21 18 15 13 17 12 11 15 15 12 14 15 15 16 18 18 19 19 17
6 6 3 2 2 2 2 3 1 2 1 3 2 3 3 3 3 3 5 3 3 5 5 5 5 4 11 12 16 13 16 18 11 13 13 15 16 16 17 20 20 19 18
6 5 4 4 4 5 4 3 2 2 2 1 1 3 3 3 4 3 3 2 1 4 5 4 2 1 2 8 13 17 20 20 18 16 11 15 16 17 17 18 19 21 19
6 7 7 5 4 3 5 4 2 1 3 2 2 1 2 2 2 4 3 3 4 3 3 3 2 2 2 2 6 11 14 17 20 18 9 7 9 12 12 15 19 20 20
7 7 8 5 4 3 3 2 3 4 2 2 3 3 1 4 1 3 6 4 3 1 2 1 1 2 3 3 6 9 15 14 16 19 13 11 9 8 5 13 17 20 21
7 6 6 5 5 3 3 3 2 3 2 3 2 2 3 3 4 3 2 1 1 1 1 2 2 3 2 3 5 8 13 10 13 13 16 14 10 5 9 11 14 20 21
4 5 6 6 6 4 4 4 3 4 3 2 3 2 2 3 4 4 4 2 1 1 0 1 1 0 2 3 4 5 9 12 18 17 18 15 11 4 4 10 15 17 19
3 4 6 5 5 4 4 3 3 3 4 3 2 2 3 3 3 3 3 1 2 2 2 2 2 3 3 3 4 6 7 13 16 18 17 15 13 12 9 9 13 17 20
2 6 6 5 4 5 4 3 3 3 3 2 2 3 2 3 2 2 2 2 2 1 1 1 3 3 3 4 5 2 7 14 18 19 18 17 16 13 11 6 5 13 18
3 5 5 5 5 4 3 3 2 1 0 2 4 3 3 3 2 3 4 4 2 1 1 1 3 3 3 4 7 8 5 12 13 13 11 10 11 9 6 8 5 1 11
4 6 5 6 5 3 3 4 1 2 2 3 4 4 2 2 2 1 2 2 4 3 1 1 1 2 3 4 7 5 5 8 12 15 12 12 11 10 9 4 5 1 3
4 5 4 4 3 3 4 2 3 1 2 3 3 4 3 1 1 1 3 3 2 3 3 1 2 2 4 3 7 6 7 10 16 14 12 10 7 6 7 1 1 3 3
6 6 6 5 5 4 2 3 2 2 2 3 3 3 5 1 2 2 3 4 3 3 6 3 2 3 4 4 4 5 6 5 5 12 11 9 7 3 2 3 3 3 4
5 5 5 5 4 4 4 4 2 2 2 2 3 4 4 1 3 3 3 4 4 3 8 9 2 2 3 2 3 5 4 4 4 9 10 8 8 7 5 5 3 6 8
7 6 6 6 6 6 5 2 4 3 3 4 4 3 2 1 2 3 4 5 3 4 5 6 4 1 2 1 3 4 4 3 1 10 10 9 7 6 5 3 4 6 6
7 7 7 7 7 6 4 6 5 4 4 5 4 3 1 2 5 5 4 5 5 6 5 5 4 2 2 2 3 3 2 2 1 3 6 4 6 4 4 4 5 5 4
8 8 7 6 5 5 4 6 5 5 6 5 4 3 3 3 8 7 5 5 6 4 5 4 3 2 1 2 4 2 2 0 1 1 2 1 2 2 2 2 2 3 4
9 8 7 6 6 4 6 6 7 5 6 6 4 3 3 5 7 9 11 8 6 6 4 4 3 4 3 3 3 3 3 1 0 1 2 1 1 0 1 1 2 2 3
8 10 7 7 8 6 10 8 8 5 6 6 5 4 2 3 6 6 9 10 8 7 6 6 6 5 5 6 5 4 4 3 3 3 3 1 2 1 2 2 4 2 1
11 10 9 9 7 7 12 9 10 6 5 6 7 6 5 4 5 7 7 6 4 2 4 4 7 7 6 7 8 6 6 4 2 2 2 2 1 1 1 1 2 2 1
9 9 9 9 9 7 9 7 7 5 5 5 4 6 6 6 7 8 7 6 3 2 3 8 5 10 9 11 8 6 3 3 2 2 2 3 2 2 1 1 1 2 2
11 9 9 9 11 11 11 9 6 5 5 4 2 2 7 8 10 8 6 6 5 4 2 4 4 5 7 8 13 6 5 4 3 1 4 3 3 4 0 0 2 2 1
Wind_Direction
207 220 241 207 257 264 224 227 215 181 190 209 222 229 239 237 215 245 257 256 222 238 249 253 253 244 229 223 215 210 201 212 206 205 205 198 190 188 187 181 175 174 162
217 202 163 156 245 290 327 245 218 190 217 214 234 232 240 229 219 221 232 244 233 233 243 244 254 253 243 232 215 211 207 206 202 200 210 206 193 188 190 189 173 173 166
213 199 205 194 199 179 246 286 281 195 228 231 235 229 230 230 227 221 210 200 228 234 239 239 247 256 249 235 212 204 199 205 194 199 212 207 199 187 191 188 180 173 171
209 203 226 257 234 348 204 277 341 226 261 180 192 180 267 232 154 168 183 187 216 232 242 247 239 239 236 232 226 218 211 215 199 196 208 210 204 193 187 192 188 178 168
214 225 224 212 245 319 267 251 284 219 285 310 307 48 184 212 165 157 165 180 205 239 254 254 236 219 218 238 223 204 223 230 212 201 210 210 214 200 191 194 194 190 178
203 243 240 204 259 289 291 228 224 270 239 318 299 299 286 216 171 163 155 139 245 273 264 275 302 259 256 240 215 218 214 227 199 204 211 215 221 211 198 196 195 191 184
191 218 253 239 237 210 209 230 234 287 311 330 312 317 341 110 131 106 107 161 242 308 294 295 289 243 263 221 218 225 219 216 204 205 207 218 215 219 208 196 194 195 184
204 191 223 222 202 165 222 211 172 224 251 210 184 145 304 349 210 191 181 196 229 252 275 250 197 196 249 252 231 237 223 219 218 209 205 197 207 208 213 204 199 199 186
233 198 203 211 201 182 217 195 199 201 226 282 196 167 314 241 239 167 215 222 230 272 305 314 212 321 284 289 284 270 244 230 230 185 153 95 58 21 299 224 203 198 187
225 220 214 220 210 194 213 223 210 221 166 257 309 226 235 197 221 305 212 193 210 274 258 257 292 315 340 300 294 272 242 219 169 166 133 124 94 39 323 292 220 204 191
237 222 209 228 229 219 230 202 222 221 209 228 214 226 236 232 226 216 272 140 68 35 190 248 274 344 304 297 284 266 241 202 185 170 143 132 136 156 270 278 263 212 198
263 257 242 218 217 212 225 222 255 263 267 257 251 238 214 241 248 226 232 143 117 15 57 30 6 341 334 329 328 264 261 199 188 154 136 157 168 172 195 252 253 219 202
264 272 229 200 203 213 208 221 243 258 292 290 285 279 232 229 217 194 159 137 134 159 94 357 352 20 7 19 356 352 150 144 138 157 170 178 191 178 175 209 248 213 201
223 252 163 195 208 200 228 230 235 285 231 298 295 277 284 280 210 191 185 144 134 132 104 166 8 31 11 12 24 63 140 157 156 164 172 161 133 126 98 105 73 249 197
241 267 234 191 206 208 229 219 255 324 318 304 306 304 290 298 326 272 171 151 131 128 129 177 117 7 41 30 50 42 66 140 121 107 105 111 106 123 116 46 82 76 210
194 235 216 188 194 222 228 226 291 307 338 335 313 335 328 317 75 164 161 126 111 137 120 133 86 115 58 51 67 51 65 93 116 117 120 127 108 96 89 141 311 29 186
244 197 195 200 201 218 253 260 263 42 38 339 10 32 18 111 191 193 90 95 88 91 121 91 79 87 59 89 44 52 62 69 98 123 133 124 131 115 144 177 234 25 124
225 223 225 212 207 230 238 221 259 151 108 50 79 50 351 315 214 106 97 84 105 109 130 128 123 82 85 81 75 73 67 62 79 110 110 115 102 81 94 99 113 66 56
218 223 225 222 214 228 233 191 177 163 133 117 127 91 333 312 161 117 98 111 103 109 120 130 114 84 90 109 74 54 72 61 72 106 95 97 92 88 90 129 127 89 60
209 220 223 219 214 223 168 150 165 167 126 129 127 102 48 259 131 129 120 129 119 112 107 113 101 99 100 57 77 106 60 30 40 59 94 114 113 107 103 111 118 130 137
207 211 221 220 208 172 171 182 165 162 131 135 120 96 44 54 119 124 137 132 126 110 119 122 111 108 122 122 142 159 119 217 18 112 82 17 64 59 19 40 84 131 151
206 199 213 202 160 174 163 200 163 149 141 135 140 118 90 84 108 126 135 127 142 139 139 132 150 156 180 174 144 153 133 161 144 218 107 180 120 315 266 270 267 135 175
208 212 195 182 182 170 191 189 170 148 137 145 160 141 100 90 107 121 117 120 124 135 167 163 157 180 166 189 150 150 162 180 213 188 109 145 140 201 252 259 235 194 238
209 209 205 191 164 177 188 182 180 145 147 161 155 144 141 136 139 136 125 121 133 159 226 205 180 173 190 172 172 173 170 150 42 64 124 122 130 185 341 27 223 173 238
212 205 201 174 174 154 181 181 165 146 148 149 135 143 145 141 162 147 133 138 147 259 286 267 207 162 169 167 143 121 147 122 87 224 213 118 179 85 65 116 95 176 207
224 208 195 187 163 156 180 182 177 139 137 132 99 142 158 151 168 175 159 152 166 223 188 100 89 101 144 164 161 159 151 153 127 12 230 129 142 138 120 256 170 167 168